Back to catalog

STARLINK-6233

AliveCommunicationsVLEO
NORAD 57229·PAYLOAD·🇺🇸 United States

Launched Jul 7, 2023 from Vandenberg Space Force Base

Loading…

Next Passes (next 24 hours)

TLE

FreshSource: CelesTrak SupGP

Epoch: Sep 14, 2026, 13:24 UTC

1 57229C 23094M   26257.55881944 -.00026305  00000+0 -95246-3 0  2572
2 57229  43.0047  44.3604 0001818 270.8604 224.9129 15.27602084    16

Track STARLINK-6233 in real time with AllMySat

Download on the App Store